Tracking 19792 objects as of 15-Jul-2019
HD Live streaming from Space Station
objects crossing your sky now

COSMOS 418

Track COSMOS 418 now!
10-day predictions
COSMOS 418 is classified as:


NORAD ID: 5217
Int'l Code: 1971-041H
Perigee: 1,406.3 km
Apogee: 1,499.1 km
Inclination: 74.0 °
Period: 114.8 minutes
Semi major axis: 7823 km
RCS: 0.6974 m2 (medium)
Launch date: May 7, 1971
Source: Commonwealth of Independent States (former USSR) (CIS)
Launch site: PLESETSK MISSILE AND SPACE COMPLEX (PKMTR)
aabbcc
Your satellite tracking list
Your tracking list is empty




NASA's NSSDC Master Catalog

Two Line Element Set (TLE):
1  5217U 71041H   19196.18211404  .00000004  00000-0  11978-3 0  9998
2  5217  74.0136 244.4002 0059338 108.5998 307.8252 12.54535771207008
Source of the keplerian elements: AFSPC